Flag for Denmark Weather past 2 weeks in Copenhagen, Denmark

Now
75 °F

Sunny.


Feels Like: 78 °F
Forecast: 60 / 80 °F
Wind: 10 mph from South

Location: Koebenhavn-Kastrup Airport

Current Time: Jul 3, 2015 at 6:50:14 PM

Latest Report: Jul 3, 2015 at 6:20 PM


Visibility: 10 mi

Pressure: 30.27 "Hg

Humidity: 50%

Dew point: 55 °F

Location of CopenhagenLocation

Historic Weather in Copenhagen — Graph

°F

Copenhagen temperature yesterday

Maximum temperature yesterday: 75 °F (at 2:50 PM)
Minimum temperature yesterday: 59 °F (at 2:20 AM)
Average temperature yesterday: 67 °F

Past Weeks' High & Low Weather Summary

 TemperatureHumidityPressure
High79 °F (Jul 3, 3:50 PM)100% (Jun 19, 12:20 PM)30.39 "Hg (Jun 19, 12:20 PM)
Low48 °F (Jun 26, 3:20 AM)39% (Jul 2, 2:50 PM)29.62 "Hg (Jun 23, 12:50 AM)
Average60 °F74%30.00 "Hg
* Reported Jun 18 5:20 PM — Jul 3 5:20 PM, Copenhagen, Weather by CustomWeather, © 2015

Note: Actual official high and low records may vary slightly from our data, if they occured in-between our weather recording intervals... More about our weather records

Advertising

Copenhagen weather history for previous 24 hours

 ConditionsComfort  
Time TempWeatherWind HumidityBarometerVisibility
5:20 PM
Fri, Jul 3
75 °FSunny.7 mph54%30.27 "Hg10 mi
4:50 PM75 °FSunny.8 mph54%30.27 "Hg10 mi
4:20 PM77 °FSunny.9 mph54%30.30 "Hg10 mi
3:50 PM79 °FSunny.10 mph48%30.30 "Hg10 mi
3:20 PM77 °FSunny.9 mph47%30.30 "Hg10 mi
2:50 PM77 °FSunny.9 mph47%30.30 "Hg10 mi
2:20 PM75 °FSunny.8 mph47%30.30 "Hg10 mi
1:50 PM77 °FSunny.9 mph47%30.30 "Hg10 mi
1:20 PM75 °FSunny.9 mph54%30.30 "Hg10 mi
12:50 PM75 °FSunny.10 mph57%30.30 "Hg10 mi
12:20 PM73 °FSunny.12 mph57%30.30 "Hg10 mi
11:50 AM72 °FSunny.14 mph61%30.30 "Hg10 mi
11:20 AM72 °FSunny.13 mph57%30.30 "Hg10 mi
10:50 AM70 °FSunny.13 mph64%30.30 "Hg10 mi
10:20 AM72 °FSunny.14 mph61%30.30 "Hg10 mi
9:50 AM70 °FSunny.16 mph60%30.30 "Hg10 mi
9:20 AM70 °FSunny.16 mph60%30.30 "Hg10 mi
8:50 AM70 °FSunny.15 mph60%30.30 "Hg10 mi
8:20 AM68 °FSunny.12 mph64%30.30 "Hg10 mi
7:50 AM66 °FSunny.14 mph73%30.33 "Hg10 mi
7:20 AM66 °FSunny.14 mph73%30.30 "Hg10 mi
6:50 AM64 °FSunny.10 mph78%30.33 "Hg10 mi
6:20 AM64 °FSunny.14 mph78%30.33 "Hg10 mi
5:50 AM63 °FSunny.12 mph77%30.33 "Hg10 mi
5:20 AM63 °FClear.12 mph77%30.33 "Hg10 mi
4:50 AM63 °FClear.9 mph77%30.33 "Hg10 mi
4:20 AM63 °FClear.10 mph77%30.33 "Hg10 mi
3:50 AM63 °FClear.12 mph77%30.33 "Hg10 mi
3:20 AM63 °FClear.10 mph73%30.33 "Hg10 mi
2:50 AM63 °FClear.13 mph73%30.30 "Hg10 mi
2:20 AM63 °FClear.14 mph73%30.30 "Hg10 mi
1:50 AM63 °FClear.14 mph68%30.30 "Hg10 mi
1:20 AM63 °FClear.16 mph68%30.30 "Hg10 mi
12:50 AM63 °FClear.16 mph68%30.30 "Hg10 mi
12:20 AM63 °FClear.12 mph73%30.30 "Hg10 mi
11:50 PM
Thu, Jul 2
63 °FClear.10 mph73%30.33 "Hg10 mi
11:20 PM63 °FClear.10 mph73%30.33 "Hg10 mi
10:50 PM64 °FSunny.13 mph68%30.33 "Hg10 mi
10:20 PM64 °FSunny.9 mph64%30.33 "Hg10 mi
9:50 PM66 °FSunny.9 mph60%30.33 "Hg10 mi
9:20 PM66 °FSunny.10 mph64%30.33 "Hg10 mi
8:50 PM68 °FSunny.13 mph56%30.33 "Hg10 mi
8:20 PM70 °FSunny.14 mph53%30.30 "Hg10 mi
7:50 PM70 °FSunny.16 mph50%30.33 "Hg10 mi
7:20 PM72 °FSunny.15 mph47%30.33 "Hg10 mi
6:50 PM72 °FSunny.17 mph47%30.33 "Hg10 mi
6:20 PM73 °FSunny.17 mph41%30.33 "Hg10 mi
Weather by CustomWeather, © 2015

See weather overviewHow to use our weather pages